This is the latest recevied weather packets stored in our database for station/object HB9SZU-6. If no packets are shown the sender has not sent any weather packets the latest 10 day(s).
| Time | Temp. | Humidity | Pressure | Rain* | Wind** | Luminosity | Snow |
|---|---|---|---|---|---|---|---|
| 1777636990 | 19.44° C | 41% | 1032.1 hPa | 0 mm | - | - | - |
| 1777636090 | 19.44° C | 42% | 1032.1 hPa | 0 mm | - | - | - |
| 1777635190 | 18.89° C | 42% | 1032.5 hPa | 0 mm | - | - | - |
| 1777634290 | 18.33° C | 42% | 1032.5 hPa | 0 mm | - | - | - |
| 1777633391 | 18.33° C | 43% | 1032.9 hPa | 0 mm | - | - | - |
| 1777632490 | 17.78° C | 43% | 1033.1 hPa | 0 mm | - | - | - |
| 1777631590 | 17.22° C | 44% | 1033.1 hPa | 0 mm | - | - | - |
| 1777630690 | 17.22° C | 44% | 1033.2 hPa | 0 mm | - | - | - |
| 1777629790 | 16.67° C | 44% | 1033.3 hPa | 0 mm | - | - | - |
| 1777628891 | 16.11° C | 44% | 1033.3 hPa | 0 mm | - | - | - |
| 1777627990 | 15.56° C | 48% | 1033.5 hPa | 0 mm | - | - | - |
| 1777627090 | 15.56° C | 48% | 1033.5 hPa | 0 mm | - | - | - |
| 1777626190 | 15.56° C | 48% | 1033.5 hPa | 0 mm | - | - | - |
| 1777625290 | 15.56° C | 48% | 1033.5 hPa | 0 mm | - | - | - |
| 1777624390 | 15.56° C | 48% | 1033.4 hPa | 0 mm | - | - | - |
| 1777623490 | 15° C | 49% | 1033.4 hPa | 0 mm | - | - | - |
| 1777622590 | 15° C | 50% | 1033.3 hPa | 0 mm | - | - | - |
| 1777621690 | 15° C | 51% | 1033.2 hPa | 0 mm | - | - | - |
| 1777620790 | 14.44° C | 51% | 1032.9 hPa | 0 mm | - | - | - |
| 1777619890 | 14.44° C | 51% | 1032.9 hPa | 0 mm | - | - | - |
| 1777618990 | 14.44° C | 51% | 1032.9 hPa | 0 mm | - | - | - |
| 1777618090 | 14.44° C | 51% | 1032.9 hPa | 0 mm | - | - | - |
| 1777617190 | 13.89° C | 52% | 1032.7 hPa | 0 mm | - | - | - |
| 1777616290 | 13.89° C | 53% | 1032.5 hPa | 0 mm | - | - | - |
| 1777615390 | 13.89° C | 54% | 1032.4 hPa | 0 mm | - | - | - |
* Rain latest hour (hover to see other rain measurements)
** Current wind speed in m/s (hover to see current wind gust speed)